TimeCDT,TemperatureF,Dew PointF,Humidity,Sea Level PressureIn,VisibilityMPH,Wind Direction,Wind SpeedMPH,Gust SpeedMPH,PrecipitationIn,Events,Conditions,WindDirDegrees,DateUTC
12:53 AM,59.0,57.0,93,29.93,10.0,Calm,Calm,-,0.00,,Overcast,0,2013-05-09 05:53:00
1:53 AM,57.9,57.0,97,29.92,10.0,North,5.8,-,0.01,,Overcast,350,2013-05-09 06:53:00
2:53 AM,57.9,57.0,97,29.91,6.0,NNE,5.8,-,N/A,,Overcast,20,2013-05-09 07:53:00
3:42 AM,57.2,57.2,100,29.91,7.0,NNW,4.6,17.3,N/A,,Overcast,330,2013-05-09 08:42:00
3:53 AM,57.9,57.0,97,29.90,10.0,NNW,8.1,-,N/A,,Overcast,330,2013-05-09 08:53:00
4:53 AM,57.9,57.0,97,29.88,10.0,NE,5.8,-,N/A,,Overcast,40,2013-05-09 09:53:00
5:53 AM,57.0,57.0,100,29.90,2.5,ENE,3.5,-,0.06,Rain,Heavy Rain,70,2013-05-09 10:53:00
6:11 AM,57.2,57.2,100,29.89,3.0,NE,5.8,-,0.10,Rain,Rain,50,2013-05-09 11:11:00
6:44 AM,57.2,57.2,100,29.88,2.5,NE,4.6,-,0.21,Rain,Rain,40,2013-05-09 11:44:00
6:53 AM,57.0,57.0,100,29.88,2.5,ENE,4.6,-,0.23,Rain,Rain,70,2013-05-09 11:53:00
6:58 AM,57.2,57.2,100,29.88,3.0,ENE,4.6,-,0.01,Rain,Light Rain,70,2013-05-09 11:58:00
7:07 AM,57.2,57.2,100,29.88,2.0,NE,4.6,-,0.02,Rain,Rain,50,2013-05-09 12:07:00
7:14 AM,57.2,57.2,100,29.87,1.5,NE,5.8,-,0.03,Rain,Light Rain,50,2013-05-09 12:14:00
7:43 AM,57.2,57.2,100,29.88,2.0,ESE,5.8,-,0.04,,Overcast,110,2013-05-09 12:43:00
7:53 AM,57.0,57.0,100,29.88,1.5,ESE,6.9,-,0.04,Rain,Light Rain,120,2013-05-09 12:53:00
8:01 AM,57.2,57.2,100,29.88,1.8,ESE,6.9,-,0.00,Rain,Light Rain,120,2013-05-09 13:01:00
8:05 AM,57.2,57.2,100,29.89,2.0,SE,6.9,-,0.00,Rain,Light Rain,130,2013-05-09 13:05:00
8:29 AM,57.2,57.2,100,29.89,2.5,SE,4.6,-,0.01,Rain,Light Rain,130,2013-05-09 13:29:00
8:53 AM,57.9,57.9,100,29.89,3.0,South,4.6,-,0.01,Rain,Light Rain,180,2013-05-09 13:53:00
9:53 AM,59.0,59.0,100,29.88,7.0,SSE,5.8,-,0.02,Rain,Light Rain,160,2013-05-09 14:53:00
10:53 AM,60.1,60.1,100,29.88,7.0,South,8.1,-,0.00,,Overcast,190,2013-05-09 15:53:00
11:42 AM,60.8,60.8,100,29.89,10.0,SW,6.9,-,N/A,,Overcast,230,2013-05-09 16:42:00
11:50 AM,60.8,60.8,100,29.89,10.0,WSW,6.9,-,N/A,,Overcast,240,2013-05-09 16:50:00
12:01 PM,60.8,59.0,94,29.89,10.0,WSW,5.8,-,N/A,,Overcast,250,2013-05-09 17:01:00
12:18 PM,62.6,59.0,88,29.89,10.0,West,4.6,-,N/A,,Overcast,280,2013-05-09 17:18:00
12:25 PM,62.6,60.8,94,29.89,10.0,NW,10.4,-,N/A,,Overcast,310,2013-05-09 17:25:00
12:53 PM,62.1,59.0,90,29.88,10.0,NW,8.1,-,N/A,,Overcast,310,2013-05-09 17:53:00
1:53 PM,66.0,59.0,78,29.86,10.0,WNW,4.6,-,N/A,,Scattered Clouds,290,2013-05-09 18:53:00
3:53 PM,68.0,59.0,73,29.83,10.0,NW,11.5,-,N/A,,Mostly Cloudy,320,2013-05-09 20:53:00
4:03 PM,69.8,59.0,68,29.83,10.0,NNW,10.4,-,N/A,,Mostly Cloudy,330,2013-05-09 21:03:00
4:53 PM,66.9,57.9,73,29.81,10.0,NNW,16.1,-,N/A,,Mostly Cloudy,340,2013-05-09 21:53:00
5:53 PM,66.0,57.9,75,29.82,10.0,NNW,16.1,-,N/A,,Scattered Clouds,330,2013-05-09 22:53:00
6:31 PM,64.4,59.0,83,29.83,10.0,NNW,18.4,23.0,N/A,,Mostly Cloudy,340,2013-05-09 23:31:00
6:45 PM,64.4,59.0,83,29.84,10.0,NNW,13.8,-,N/A,,Scattered Clouds,340,2013-05-09 23:45:00
6:53 PM,64.0,57.9,80,29.83,10.0,NNW,16.1,-,N/A,,Scattered Clouds,340,2013-05-09 23:53:00
7:38 PM,60.8,57.2,88,29.85,10.0,NNW,17.3,24.2,N/A,,Mostly Cloudy,340,2013-05-10 00:38:00
7:53 PM,60.1,57.0,90,29.86,10.0,NNW,17.3,-,N/A,,Overcast,340,2013-05-10 00:53:00
8:53 PM,57.9,55.9,93,29.86,10.0,NNW,18.4,25.3,N/A,,Overcast,330,2013-05-10 01:53:00
9:12 PM,57.2,55.4,94,29.87,8.0,NNW,23.0,28.8,N/A,,Overcast,330,2013-05-10 02:12:00
9:53 PM,55.0,54.0,96,29.88,6.0,North,21.9,-,0.01,,Overcast,350,2013-05-10 02:53:00
9:58 PM,55.4,53.6,94,29.88,6.0,North,20.7,-,N/A,,Overcast,350,2013-05-10 02:58:00
10:53 PM,54.0,53.1,97,29.89,9.0,North,16.1,26.5,0.01,,Overcast,350,2013-05-10 03:53:00